Peoria, IL

8:11 PM CDT on October 22, 2019 (GMT -0500)
Greater Peoria Regional

Weather History for KPIA - August, 2019

Change the Weather History Date:

Tuesday, August 20, 2019

  Actual Average Record
Temperature  
Mean Temperature 76 °F 74 °F  
Max Temperature 82 °F 84 °F 102 °F (1983)
Min Temperature 69 °F 64 °F 43 °F (1950)
Degree Days  
Heating Degree Days 0 0  
Month to date heating degree days 0 0  
Since 1 June heating degree days 5 19  
Since 1 July heating degree days 0 1  
Cooling Degree Days 11 9  
Month to date cooling degree days 212 189  
Year to date cooling degree days 924 820  
Since 1 June cooling degree days 843 739  
Growing Degree Days 26 (Base 50)    
Moisture  
Dew Point 67 °F    
Average Humidity 81    
Maximum Humidity 94    
Minimum Humidity 62    
Precipitation  
Precipitation 0.26 in 0.10 in 2.27 in (1990)
Month to date precipitation 3.08 2.07  
Year to date precipitation 32.76 23.78  
Snow  
Snow 0.00 in 0.00 in 0.00 in ()
Month to date snowfall 0.0 0.0  
Since 1 June snowfall 0.0 0.0  
Since 1 July snowfall 0.0 0.0  
Snow Depth 0.00 in    
Sea Level Pressure  
Sea Level Pressure 29.99 in    
Wind  
Wind Speed 6 mph ()    
Max Wind Speed 25 mph    
Max Gust Speed 45 mph    
Visibility 8.3 miles    
Events Rain , Thunderstorm    
T = Trace of Precipitation, MM = Missing Value Source: Averaged Metar Reports

Daily Weather History Graph

Daily Weather History Graph

Search for Another Location

Airport or City:

Astronomy

Aug. 20, 2019 Rise Set
Actual Time 6:13 AM CDT 7:49 PM CDT
Civil Twilight 5:44 AM CDT 8:18 PM CDT
Nautical Twilight 5:09 AM CDT 8:53 PM CDT
Astronomical Twilight 4:32 AM CDT 9:30 PM CDT
Moon 10:36 PM CDT (8/20) 10:53 AM CDT (8/20)
Length of Visible Light 14h 33m
Length of Day
13h 35m
Waning Gibbous, 77% of the Moon is Illuminated
Aug 20
Waning Gibbous
Aug 23
Last Quarter
Aug 30
New
Sep 5
First Quarter
Sep 13
Full

Hourly Weather History & Observations

Time (CDT) Temp. Heat Index Dew Point Humidity Pressure Visibility Wind Dir Wind Speed Gust Speed Precip Events Conditions
12:54 AM 78.1 °F - 73.0 °F 84% 30.00 in 10.0 mi SE 3.5 mph - N/A   Clear
1:54 AM 77.0 °F - 73.0 °F 88% 29.99 in 10.0 mi SSE 3.5 mph - N/A   Clear
2:54 AM 75.9 °F - 73.0 °F 91% 30.00 in 7.0 mi Calm Calm - N/A   Clear
3:54 AM 75.0 °F - 72.0 °F 90% 29.99 in 6.0 mi Calm Calm - N/A   Clear
4:54 AM 75.0 °F - 72.0 °F 90% 29.96 in 7.0 mi South 4.6 mph - N/A   Scattered Clouds
6:54 AM 75.0 °F - 71.1 °F 87% 29.97 in 9.0 mi Calm Calm - N/A   Scattered Clouds
7:54 AM 75.0 °F - 71.1 °F 87% 30.01 in 9.0 mi East 3.5 mph - N/A   Overcast
8:54 AM 73.9 °F - 71.1 °F 91% 30.02 in 8.0 mi Calm Calm - 0.00 in Rain Light Rain
9:20 AM 75.0 °F - 71.1 °F 87% 30.05 in 6.0 mi WSW 5.8 mph - 0.00 in Rain Light Rain
9:27 AM 73.0 °F - 68.0 °F 84% 30.10 in 2.0 mi WNW 21.9 mph 41.4 mph 0.00 in Rain , Thunderstorm Heavy Rain
9:30 AM 71.6 °F - 66.2 °F 83% 30.07 in 1.2 mi NW 20.7 mph 41.4 mph N/A Rain , Thunderstorm Heavy Rain
9:40 AM 69.1 °F - 64.9 °F 87% 30.08 in 1.5 mi NW 11.5 mph 36.8 mph 0.14 in Rain , Thunderstorm Thunderstorms and Rain
9:43 AM 69.1 °F - 64.0 °F 84% 30.07 in 3.0 mi NW 10.4 mph 31.1 mph 0.16 in Rain , Thunderstorm Thunderstorms and Rain
9:54 AM 69.1 °F - 64.0 °F 84% 30.05 in 8.0 mi NNW 10.4 mph 24.2 mph 0.18 in Rain , Thunderstorm Light Thunderstorms and Rain
10:02 AM 69.1 °F - 64.0 °F 84% 30.04 in 10.0 mi NNW 8.1 mph 20.7 mph 0.01 in Rain , Thunderstorm Light Rain
10:22 AM 69.1 °F - 64.0 °F 84% 30.00 in 8.0 mi WNW 21.9 mph 39.1 mph 0.01 in Rain Light Rain
10:31 AM 70.0 °F - 63.0 °F 78% 30.01 in 7.0 mi WNW 20.7 mph 44.9 mph 0.03 in Rain , Thunderstorm Rain
10:54 AM 70.0 °F - 62.1 °F 76% 29.99 in 8.0 mi SW 11.5 mph 20.7 mph 0.07 in Rain , Thunderstorm Light Thunderstorms and Rain
11:14 AM 69.1 °F - 63.0 °F 81% 29.92 in 10.0 mi South 20.7 mph - 0.01 in Rain , Thunderstorm Light Thunderstorms and Rain
11:28 AM 69.1 °F - 64.0 °F 84% 29.94 in 10.0 mi South 11.5 mph 27.6 mph 0.01 in Thunderstorm Partly Cloudy
11:32 AM 70.0 °F - 63.0 °F 78% 29.97 in 10.0 mi South 8.1 mph 24.2 mph 0.01 in Thunderstorm Partly Cloudy
11:41 AM 70.0 °F - 63.0 °F 78% 29.96 in 10.0 mi SE 6.9 mph - 0.01 in   Clear
11:54 AM 71.1 °F - 64.0 °F 78% 29.96 in 10.0 mi South 5.8 mph - 0.01 in   Clear
12:54 PM 73.0 °F - 66.0 °F 79% 29.94 in 10.0 mi SSW 17.3 mph 27.6 mph N/A   Clear
1:54 PM 75.0 °F - 66.9 °F 76% 29.96 in 10.0 mi WSW 13.8 mph - N/A   Clear
2:54 PM 81.0 °F 84.1 °F 69.1 °F 67% 29.96 in 10.0 mi West 11.5 mph 20.7 mph N/A   Clear
3:54 PM 82.9 °F 87.0 °F 70.0 °F 65% 29.93 in 10.0 mi NW 6.9 mph - N/A   Clear
4:54 PM 82.0 °F 84.9 °F 68.0 °F 62% 29.90 in 10.0 mi Variable 5.8 mph 19.6 mph N/A   Clear
5:54 PM 81.0 °F 83.8 °F 68.0 °F 65% 29.91 in 10.0 mi NNE 5.8 mph - N/A   Clear
6:54 PM 81.0 °F 83.3 °F 66.9 °F 62% 29.93 in 10.0 mi Calm Calm - N/A   Clear
7:54 PM 75.9 °F - 68.0 °F 76% 29.95 in 10.0 mi Calm Calm - N/A   Clear
8:54 PM 73.0 °F - 69.1 °F 87% 29.95 in 10.0 mi Calm Calm - N/A   Clear
9:54 PM 72.0 °F - 69.1 °F 91% 29.99 in 10.0 mi Calm Calm - N/A   Clear
10:54 PM 71.1 °F - 68.0 °F 90% 29.99 in 10.0 mi Calm Calm - N/A   Clear
11:54 PM 71.1 °F - 68.0 °F 90% 29.99 in 10.0 mi Calm Calm - N/A   Clear